User: anonymous   Login
Location: Kott?ru
(16.6209°N, 80.6208°E)
Time: 21:47:18
(UTC+00:00)
Language:

Cosmos 1763 Rocket - Orbit

View from above orbital plane
View from above orbital plane
View from above satellite
View from above satellite

Ground track
Ground track

The orbit data is extracted from the following two-line orbital elements,

1 16864U 86052B   21127.92116829  .00000026  00000-0  16253-4 0  9996
2 16864  74.0294 345.1847 0032076  93.3867 267.0958 14.40627930827245
Epoch (UTC): 07 May 2021 22:06:28
Eccentricity: 0.0032076
inclination: 74.0294°
perigee height: 733 km
apogee height: 779 km
right ascension of ascending node: 345.1847°
argument of perigee: 93.3867°
revolutions per day: 14.40627930
mean anomaly at epoch: 267.0958°
orbit number at epoch: 82724

The dashed part of the orbit path shows where the satellite is in the earth's shadow,  

DLR